[[{"header":{"parameterUnit":"m.s-1","parameterCategory":1,"la1":30.2991,"la2":30.254,"lo1":-89.0895,"lo2":-89.0444,"dy":0.0017,"dx":0.0017,"nx":28,"ny":28,"refTime":"2023-10-02T21:00:00:Z","depth":0,"parameterNumber":2,"parameterNumberName":"U-component_of_WINDS"},"data":[0,0,0,0,0,0,0,0,0,0,0,0,0,0,0,0,0,0,0,0,0,0,0,0,0,0,0,0,0,0,0,0,0,0,0,0,0,0,0,0,0,0,0,0,0,0,0,0,0,0,0,0,0,0,0,0,0,0,-5.8394,-5.8394,0,-5.8431,-5.8431,-5.8432,-5.8234,-5.8228,-5.8223,-5.8217,-5.8257,-5.8263,-5.827,0,0,0,0,0,0,0,0,0,0,0,0,0,-5.8153,-5.8158,-5.8394,-5.8394,-5.8395,-5.8431,-5.8431,-5.8432,-5.8235,-5.8228,-5.8221,-5.8215,-5.8255,-5.8263,-5.827,0,0,0,0,0,0,0,0,0,0,0,0,0,-5.8231,-5.816,-5.8394,-5.8301,-5.8293,-5.8431,-5.8431,-5.8432,-5.8237,-5.8228,-5.822,-5.8212,-5.8253,-5.8262,-5.8271,-5.85,0,0,-5.83,-5.8304,0,0,0,0,0,0,0,0,-5.8226,-5.824,-5.8314,-5.8308,-5.8299,-5.8319,-5.836,-5.8455,-5.8239,-5.8258,-5.8217,-5.8207,-5.8285,-5.8291,-5.8317,-5.8502,-5.8504,-5.8301,-5.8307,-5.8311,-5.8314,0,0,0,0,0,0,0,-5.8221,-5.8237,-5.8408,-5.8315,-5.8306,-5.8257,-5.8259,-5.8378,-5.8319,-5.8256,-5.8241,-5.8249,-5.8279,-5.8308,-5.8316,-5.8504,-5.8301,-5.8309,-5.8315,-5.8319,-5.8878,-5.8887,0,0,0,0,0,0,-5.8228,-5.8234,-5.8407,-5.8409,-5.8241,-5.8269,-5.827,-5.8321,-5.8317,-5.8308,-5.8256,-5.8239,-5.8296,-5.8305,-5.8317,-5.8584,-5.8311,-5.832,-5.8325,-5.8869,-5.888,-5.889,0,0,0,0,0,0,-5.8224,-5.8246,-5.8406,-5.8318,-5.8334,-5.8282,-5.8341,-5.8327,-5.8355,-5.8317,-5.8305,-5.8296,-5.829,-5.8304,-5.8456,-5.8582,-5.8324,-5.8333,-5.8858,-5.8872,-5.8885,-5.9121,0,0,0,0,0,0,-5.8218,-5.8245,-5.8332,-5.8321,-5.834,-5.8545,-5.8348,-5.8333,-5.8372,-5.8351,-5.8352,-5.8344,-5.8284,-5.8443,-5.8465,-5.8591,-5.834,-5.8846,-5.8864,-5.8881,-5.9101,-5.9141,-5.9174,0,0,0,0,0,-5.821,-5.8398,-5.8337,-5.8359,-5.8447,-5.8552,-5.8563,-5.849,-5.8383,-5.847,-5.8445,-5.8344,-5.8565,-5.846,-5.8484,-5.8614,-5.8838,-5.8859,-5.8879,-5.9085,-5.9133,-5.9174,0,0,0,0,0,0,-5.8425,-5.8394,-5.8327,-5.8517,-5.8539,-5.8519,-5.8626,-5.8543,-5.8596,-5.8574,-5.8481,-5.8483,-5.8651,-5.8647,-5.8531,-5.8835,-5.8683,-5.8709,-5.8831,-5.8877,-5.8912,-5.891,-5.8348,0,0,0,0,0,-5.8495,-5.8583,-5.8551,-5.8722,-5.8736,-5.868,-5.8723,-5.8664,-5.8683,-5.8691,-5.8677,-5.87,-5.8774,-5.8825,-5.8891,-5.9099,-5.9096,-5.9201,-5.9237,-5.9268,-5.9292,-5.94,-5.9446,-5.8957,-5.8957,-5.8957,0,0,-5.864,-5.8634,-5.8695,-5.8765,-5.8774,-5.8867,-5.8689,-5.8795,-5.8863,-5.8707,-5.885,-5.8841,-5.886,-5.9041,-5.912,-5.9043,-5.9426,-5.9294,-5.9318,-5.9326,-5.9426,-5.9473,-5.9514,-5.8971,-5.8969,-5.8966,0,0,-5.8951,-5.8956,-5.9097,-5.9111,-5.9127,-5.9088,-5.9123,-5.9115,-5.9103,-5.9244,-5.9129,-5.9209,-5.9339,-5.9356,-5.9382,-5.9699,-5.9608,-5.9723,-5.9914,-6.0022,-6.006,-6.0094,-6.0206,-6.0248,-5.9747,-5.9748,-5.9748,0,-5.9129,-5.9264,-5.9181,-5.9295,-5.9328,-5.9191,-5.9334,-5.9351,-5.9389,-5.9415,-5.9328,-5.9487,-5.9491,-5.9673,-5.9751,-5.9777,-5.9812,-5.9723,-6.0061,-6.0094,-6.0124,-6.023,-6.0273,-5.9762,-5.976,-5.9758,-5.9757,0,-5.9482,-5.9577,-5.969,-5.9729,-5.9775,-5.9903,-5.9839,-5.9896,-5.9834,-5.9804,-5.9949,-5.9948,-6.0011,-6.0049,-5.999,-6.0224,-6.0176,-6.0077,-5.9922,-6.0186,-6.0284,-6.0324,-5.9781,-5.9776,-5.9772,-5.9769,0,0,-5.9931,-5.9921,-5.9964,-5.9979,-5.9987,-6.0059,-6.0181,-6.0241,-6.0292,-6.0322,-6.0421,-6.0534,-6.0442,-6.0472,-6.0412,-6.0507,-6.0757,-6.0395,-6.0394,-6.0462,-6.1014,-6.1088,-6.1137,-6.0696,-6.0704,-6.071,-6.1012,0,-6.0234,-6.044,-6.0369,-6.0579,-6.0666,-6.0536,-6.0641,-6.0658,-6.0633,-6.0703,-6.0675,-6.0756,-6.0629,-6.0646,-6.0733,-6.0708,-6.0866,-6.0685,-6.0788,-6.0792,-6.0787,-6.1188,-6.1267,-6.1553,-6.105,-6.1056,-6.1061,0,-6.0617,-6.0662,-6.0881,-6.0872,-6.0906,-6.1002,-6.1051,-6.1119,-6.1135,-6.111,-6.1143,-6.1064,-6.1181,-6.1027,-6.1188,-6.1067,-6.1104,-6.1098,-6.1107,-6.1114,-6.0943,-6.1205,-6.1642,-6.1685,-6.1121,-6.1116,-6.1112,0,-6.0922,-6.1037,-6.1182,-6.1199,-6.1194,-6.1264,-6.1265,-6.1272,-6.1312,-6.1355,-6.1381,-6.1438,-6.1469,-6.1515,-6.1452,-6.1346,-6.1623,-6.1463,-6.1605,-6.1607,-6.167,-6.1667,-6.2119,-6.1695,-6.1694,-6.1693,-6.1693,0,-6.1268,-6.1407,-6.1319,-6.1409,-6.156,-6.1476,-6.1628,-6.1614,-6.1621,-6.1706,-6.1597,-6.1679,-6.1591,-6.1665,-6.1617,-6.1757,-6.1772,-6.1756,-6.1741,-6.1765,-6.1768,-6.1789,-6.1767,-6.1705,-6.1702,-6.17,-6.1698,0,-6.1635,-6.1581,-6.1731,-6.1712,-6.1711,-6.1823,-6.1807,-6.1889,-6.1856,-6.1964,-6.1985,-6.1934,-6.2015,-6.1957,-6.2037,-6.2005,-6.2189,-6.2147,-6.2184,-6.2173,-6.2318,-6.2305,-6.2799,-6.2859,-6.2398,-6.2402,-6.2406,0,-6.1859,-6.1963,-6.1955,-6.2003,-6.2011,-6.2091,-6.2131,-6.2052,-6.2099,-6.2123,-6.2203,-6.2274,-6.2326,-6.2462,-6.2432,-6.2492,-6.2451,-6.262,-6.2459,-6.248,-6.2453,-6.2447,-6.2457,-6.2652,-6.2658,-6.2662,-6.2666,0,-6.2264,-6.2231,-6.2294,-6.2348,-6.2399,-6.2437,-6.2467,-6.2513,-6.2432,-6.249,-6.2571,-6.2612,-6.2693,-6.2766,-6.2815,-6.2815,-6.2729,-6.2717,-6.2752,-6.2778,-6.2795,-6.2787,-6.2272,-6.2706,-6.2702,-6.2699,-6.2697,-6.2695,-6.2565,-6.2651,-6.2658,-6.2731,-6.2745,-6.2775,-6.2851,-6.2827,-6.2892,-6.2952,-6.2901,-6.2998,-6.3009,-6.3067,-6.3078,-6.3152,-6.3083,-6.3136,-6.3149,-6.3163,-6.3183,-6.2784,-6.3161,-6.316,-6.3159,-6.3158,-6.3157,0,-6.2963,-6.2961,-6.3029,-6.3073,-6.3131,-6.3042,-6.307,-6.3124,-6.321,-6.3228,-6.3282,-6.3374,-6.3443,-6.3419,-6.348,-6.3544,-6.3505,-6.3563,-6.3557,-6.3558,-6.3242,-6.3204,-6.3593,-6.3593,-6.3593,-6.3592,-6.3592,-6.3592,-6.3177,-6.3316,-6.3285,-6.3431,-6.3427,-6.3521,-6.3544,-6.3571,-6.3584,-6.3693,-6.3749,-6.3732,-6.3733,-6.3792,-6.3852,-6.3842,-6.387,-6.3942,-6.3919,-6.3624,-6.3581,-6.354,-6.3504,-6.3949,-6.3949,-6.4228,-6.4231,-6.4233]},{"header":{"parameterUnit":"m.s-1","parameterCategory":1,"la1":30.2991,"la2":30.254,"lo1":-89.0895,"lo2":-89.0444,"dy":0.0017,"dx":0.0017,"nx":28,"ny":28,"refTime":"2023-10-02T21:00:00:Z","depth":0,"parameterNumber":3,"parameterNumberName":"V-component_of_WINDS"},"data":[0,0,0,0,0,0,0,0,0,0,0,0,0,0,0,0,0,0,0,0,0,0,0,0,0,0,0,0,0,0,0,0,0,0,0,0,0,0,0,0,0,0,0,0,0,0,0,0,0,0,0,0,0,0,0,0,0,0,-1.3895,-1.3895,0,-1.3911,-1.3911,-1.3912,-1.3934,-1.3934,-1.3935,-1.3935,-1.3949,-1.3949,-1.3949,0,0,0,0,0,0,0,0,0,0,0,0,0,-1.388,-1.388,-1.3895,-1.3895,-1.3896,-1.3911,-1.3911,-1.3912,-1.3934,-1.3934,-1.3935,-1.3935,-1.3949,-1.3949,-1.3949,0,0,0,0,0,0,0,0,0,0,0,0,0,-1.3891,-1.3881,-1.3895,-1.3909,-1.391,-1.3911,-1.3911,-1.3912,-1.3934,-1.3934,-1.3935,-1.3935,-1.3949,-1.3949,-1.395,-1.3938,0,0,-1.395,-1.395,0,0,0,0,0,0,0,0,-1.389,-1.3891,-1.3906,-1.3908,-1.3909,-1.3921,-1.3911,-1.392,-1.3934,-1.3925,-1.3935,-1.3936,-1.3939,-1.394,-1.3942,-1.3939,-1.394,-1.395,-1.395,-1.395,-1.395,0,0,0,0,0,0,0,-1.3889,-1.389,-1.3902,-1.3907,-1.3908,-1.3913,-1.3915,-1.3913,-1.3929,-1.3925,-1.3927,-1.3929,-1.394,-1.3942,-1.3943,-1.394,-1.395,-1.395,-1.395,-1.395,-1.3925,-1.3924,0,0,0,0,0,0,-1.3887,-1.389,-1.3901,-1.3902,-1.3901,-1.3912,-1.3915,-1.3917,-1.3929,-1.3931,-1.3928,-1.393,-1.3942,-1.3942,-1.3943,-1.3929,-1.395,-1.395,-1.395,-1.3926,-1.3925,-1.3924,0,0,0,0,0,0,-1.3886,-1.3888,-1.39,-1.3896,-1.3898,-1.3912,-1.3914,-1.3917,-1.3918,-1.3931,-1.3933,-1.3927,-1.3942,-1.3943,-1.3939,-1.393,-1.395,-1.395,-1.3927,-1.3925,-1.3925,-1.3901,0,0,0,0,0,0,-1.3886,-1.3887,-1.3884,-1.3896,-1.3898,-1.3897,-1.3914,-1.3917,-1.3919,-1.3921,-1.3931,-1.3933,-1.3943,-1.3939,-1.3939,-1.393,-1.395,-1.3927,-1.3926,-1.3925,-1.3902,-1.3899,-1.3896,0,0,0,0,0,-1.3885,-1.3877,-1.3884,-1.3885,-1.3895,-1.3896,-1.3897,-1.3909,-1.3918,-1.3914,-1.3921,-1.3932,-1.3931,-1.3938,-1.3938,-1.3929,-1.3928,-1.3926,-1.3925,-1.3904,-1.39,-1.3896,0,0,0,0,0,0,-1.3864,-1.3879,-1.3887,-1.3883,-1.3888,-1.39,-1.3896,-1.3905,-1.3908,-1.391,-1.3924,-1.3926,-1.3919,-1.3924,-1.3932,-1.3918,-1.3931,-1.3929,-1.3915,-1.3911,-1.3908,-1.3906,-1.395,0,0,0,0,0,-1.3859,-1.3859,-1.3872,-1.3867,-1.3869,-1.3882,-1.3883,-1.3892,-1.3898,-1.39,-1.3907,-1.3912,-1.3912,-1.3912,-1.3913,-1.3903,-1.3905,-1.3897,-1.3894,-1.3892,-1.389,-1.3882,-1.3879,-1.3919,-1.3919,-1.3919,0,0,-1.3848,-1.3856,-1.3856,-1.3863,-1.3868,-1.3867,-1.3884,-1.3883,-1.3881,-1.3899,-1.3895,-1.3901,-1.3907,-1.3899,-1.3896,-1.3903,-1.3879,-1.389,-1.3887,-1.3887,-1.388,-1.3876,-1.3873,-1.3918,-1.3918,-1.3918,0,0,-1.3827,-1.3835,-1.383,-1.3834,-1.3842,-1.385,-1.3849,-1.3859,-1.3863,-1.3859,-1.3872,-1.387,-1.3871,-1.3874,-1.3876,-1.3854,-1.3863,-1.3854,-1.3837,-1.383,-1.3826,-1.3824,-1.3813,-1.381,-1.3852,-1.3852,-1.3852,0,-1.3813,-1.3813,-1.3826,-1.3823,-1.3825,-1.3841,-1.3835,-1.3839,-1.3846,-1.3846,-1.3854,-1.3854,-1.3859,-1.3851,-1.3845,-1.3847,-1.3844,-1.3852,-1.3826,-1.3823,-1.3821,-1.3811,-1.3808,-1.3851,-1.3851,-1.3851,-1.3851,0,-1.3793,-1.3793,-1.3788,-1.3794,-1.3795,-1.3791,-1.3802,-1.3802,-1.381,-1.3816,-1.3811,-1.3817,-1.3819,-1.3818,-1.3826,-1.381,-1.3814,-1.3824,-1.3837,-1.3815,-1.3806,-1.3803,-1.3849,-1.3849,-1.385,-1.385,0,0,-1.3761,-1.3773,-1.3771,-1.3772,-1.3781,-1.378,-1.3775,-1.3777,-1.3775,-1.3779,-1.3774,-1.3774,-1.3782,-1.3784,-1.3792,-1.3786,-1.3765,-1.3796,-1.3796,-1.3788,-1.3745,-1.3736,-1.3732,-1.3771,-1.3771,-1.377,-1.3743,0,-1.374,-1.3734,-1.3745,-1.3735,-1.3733,-1.3748,-1.3743,-1.3747,-1.3753,-1.3751,-1.3757,-1.3755,-1.3768,-1.3768,-1.3763,-1.3768,-1.3756,-1.3771,-1.3765,-1.3764,-1.3761,-1.3728,-1.3719,-1.3693,-1.374,-1.374,-1.3739,0,-1.3717,-1.3718,-1.3709,-1.3715,-1.3715,-1.3711,-1.3712,-1.3711,-1.3714,-1.3718,-1.3719,-1.3728,-1.3723,-1.3736,-1.3727,-1.3737,-1.3735,-1.3737,-1.3736,-1.3735,-1.375,-1.3723,-1.3686,-1.3681,-1.3734,-1.3735,-1.3735,0,-1.3691,-1.3691,-1.3685,-1.3686,-1.3694,-1.3691,-1.3694,-1.3698,-1.3697,-1.3698,-1.3697,-1.3697,-1.3696,-1.3695,-1.3704,-1.3713,-1.3692,-1.3707,-1.3694,-1.3694,-1.3688,-1.3688,-1.3648,-1.369,-1.369,-1.369,-1.369,0,-1.3667,-1.366,-1.3673,-1.3669,-1.366,-1.3672,-1.3663,-1.3668,-1.3671,-1.3666,-1.3679,-1.3674,-1.3686,-1.3682,-1.3689,-1.3679,-1.3679,-1.3681,-1.3682,-1.3679,-1.3678,-1.3677,-1.3678,-1.3689,-1.3689,-1.3689,-1.3689,0,-1.3637,-1.3646,-1.3639,-1.3647,-1.3649,-1.3642,-1.3648,-1.3643,-1.3649,-1.3643,-1.3642,-1.3651,-1.3646,-1.3655,-1.3652,-1.3656,-1.3641,-1.3646,-1.364,-1.3641,-1.3626,-1.3626,-1.3582,-1.3576,-1.3623,-1.3623,-1.3623,0,-1.3621,-1.3615,-1.3621,-1.3619,-1.3622,-1.3618,-1.3617,-1.3628,-1.3626,-1.3628,-1.3623,-1.362,-1.3617,-1.361,-1.3615,-1.3612,-1.3616,-1.3601,-1.3616,-1.3611,-1.3613,-1.3612,-1.3611,-1.3597,-1.3597,-1.3596,-1.3596,0,-1.3589,-1.3593,-1.3592,-1.3591,-1.3589,-1.3589,-1.3589,-1.3587,-1.3598,-1.3595,-1.359,-1.3588,-1.3585,-1.358,-1.3578,-1.358,-1.3588,-1.3591,-1.3587,-1.3583,-1.3578,-1.3578,-1.3629,-1.3592,-1.3592,-1.3592,-1.3593,-1.3593,-1.3564,-1.3559,-1.3562,-1.3559,-1.356,-1.356,-1.3555,-1.3559,-1.3556,-1.3554,-1.356,-1.3553,-1.3554,-1.3552,-1.3553,-1.3547,-1.3554,-1.3549,-1.3547,-1.3546,-1.3542,-1.358,-1.3547,-1.3547,-1.3547,-1.3547,-1.3547,0,-1.3532,-1.3534,-1.3531,-1.3531,-1.3527,-1.3536,-1.3537,-1.3533,-1.3527,-1.3528,-1.3525,-1.3518,-1.3513,-1.3518,-1.3513,-1.3507,-1.3511,-1.3506,-1.3505,-1.3505,-1.3538,-1.354,-1.3502,-1.3502,-1.3502,-1.3503,-1.3503,-1.3503,-1.3514,-1.3505,-1.3509,-1.3499,-1.3501,-1.3495,-1.3494,-1.3493,-1.3493,-1.3485,-1.3481,-1.3484,-1.3485,-1.348,-1.3475,-1.3477,-1.3473,-1.3466,-1.3468,-1.3499,-1.3503,-1.3507,-1.3509,-1.3466,-1.3466,-1.3436,-1.3436,-1.3435]}]]